Weather History for Buckeye, AZ

Change the Weather History Date:

Saturday, October 27, 2012

  Actual Average (KGYR) Record (KGYR)
Temperature  
Mean Temperature 68 °F -  
Max Temperature 82 °F 78 °F 95 °F (2001)
Min Temperature 55 °F 53 °F 42 °F (1996)
Cooling Degree Days 4    
Growing Degree Days 18 (Base 50)    
Moisture  
Dew Point 17 °F    
Average Humidity 14    
Maximum Humidity 20    
Minimum Humidity 10    
Precipitation  
Precipitation 0.00 in - - ()
Sea Level Pressure  
Sea Level Pressure 29.92 in    
Wind  
Wind Speed 7 mph (NE)    
Max Wind Speed 16 mph    
Max Gust Speed 20 mph    
Averages and records for this station are not official NWS values.
T = Trace of Precipitation, MM = Missing Value Source: NWS Daily Summary

Daily Weather History Graph

Daily Weather History Graph

Search for Another Location

Airport:

Trip Planner

Search our weather history database for the weather conditions in past years. The results will help you decide how hot, cold, wet, or windy it might be!

Date:

Astronomy

Oct. 27, 2012 Rise Set
Actual Time 6:45 AM MST 5:43 PM MST
Civil Twilight 6:20 AM MST 6:08 PM MST
Nautical Twilight 5:50 AM MST 6:37 PM MST
Astronomical Twilight 5:21 AM MST 7:06 PM MST
Moon 4:28 PM MST (10/27) 4:48 AM MST (10/27)
Length of Visible Light 11h 48m
Length of Day
10h 57m
Waxing Gibbous, 96% of the Moon is Illuminated
Oct 27
Waxing Gibbous
Oct 29
Full
Nov 6
Last Quarter
Nov 13
New
Nov 20
First Quarter

Hourly Weather History & Observations

Time (MST) Temp. Dew Point Humidity Pressure Visibility Wind Dir Wind Speed Gust Speed Precip Events Conditions
12:15 AM 60.8 °F 12.2 °F 15% 29.92 in - NE 5.8 mph - N/A   Clear
12:35 AM 60.8 °F 10.4 °F 14% 29.93 in - NNE 8.1 mph - N/A   Clear
12:55 AM 59.0 °F 10.4 °F 15% 29.92 in - North 6.9 mph - N/A   Clear
1:35 AM 57.2 °F 10.4 °F 16% 29.92 in - Calm Calm - N/A   Clear
1:55 AM 57.2 °F 14.0 °F 18% 29.92 in - Calm Calm - N/A   Clear
2:15 AM 55.4 °F 10.4 °F 17% 29.92 in - NW 3.5 mph - N/A   Clear
2:35 AM 57.2 °F 10.4 °F 16% 29.92 in - NW 5.8 mph - N/A   Clear
2:55 AM 55.4 °F 10.4 °F 17% 29.92 in - NNW 6.9 mph - N/A   Clear
3:15 AM 55.4 °F 8.6 °F 15% 29.92 in - NNW 8.1 mph - N/A   Clear
3:35 AM 57.2 °F 8.6 °F 14% 29.92 in - NNW 8.1 mph - N/A   Clear
3:55 AM 57.2 °F 6.8 °F 13% 29.92 in - NNW 9.2 mph - N/A   Clear
4:15 AM 57.2 °F 6.8 °F 13% 29.92 in - North 10.4 mph - N/A   Clear
4:55 AM 57.2 °F 6.8 °F 13% 29.92 in - North 12.7 mph - N/A   Clear
5:15 AM 57.2 °F 5.0 °F 12% 29.92 in - North 10.4 mph - N/A   Clear
5:35 AM 57.2 °F 5.0 °F 12% 29.93 in - North 11.5 mph - N/A   Clear
5:55 AM 57.2 °F 5.0 °F 12% 29.93 in - North 11.5 mph - N/A   Partly Cloudy
6:15 AM 57.2 °F 5.0 °F 12% 29.94 in - North 8.1 mph - N/A   Clear
6:35 AM 57.2 °F 5.0 °F 12% 29.95 in - NNW 8.1 mph - N/A   Clear
6:55 AM 57.2 °F 5.0 °F 12% 29.95 in - North 8.1 mph - N/A   Clear
7:15 AM 57.2 °F 5.0 °F 12% 29.96 in - NNW 11.5 mph - N/A   Clear
7:35 AM 59.0 °F 5.0 °F 12% 29.97 in - NNW 4.6 mph - N/A   Clear
7:55 AM 59.0 °F 6.8 °F 13% 29.98 in - SE 5.8 mph - N/A   Clear
8:35 AM 60.8 °F 10.4 °F 14% 29.99 in - Calm Calm - N/A   Clear
8:55 AM 62.6 °F 10.4 °F 13% 29.99 in - Calm Calm - N/A   Clear
9:15 AM 66.2 °F 10.4 °F 11% 29.99 in - Calm Calm - N/A   Clear
9:35 AM 68.0 °F 19.4 °F 16% 29.98 in - SE 5.8 mph - N/A   Clear
9:55 AM 73.4 °F 17.6 °F 12% 29.97 in - East 13.8 mph - N/A   Clear
10:15 AM 75.2 °F 17.6 °F 11% 29.97 in - East 15.0 mph - N/A   Clear
10:35 AM 75.2 °F 15.8 °F 11% 29.97 in - East 16.1 mph - N/A   Clear
10:55 AM 77.0 °F 15.8 °F 10% 29.97 in - East 15.0 mph - N/A   Clear
11:15 AM 77.0 °F 17.6 °F 11% 29.96 in - East 15.0 mph 19.6 mph N/A   Clear
11:35 AM 77.0 °F 24.8 °F 14% 29.95 in - East 13.8 mph 19.6 mph N/A   Clear
11:55 AM 77.0 °F 23.0 °F 13% 29.94 in - East 12.7 mph 18.4 mph N/A   Clear
12:15 PM 77.0 °F 23.0 °F 13% 29.94 in - East 10.4 mph - N/A   Clear
12:35 PM 80.6 °F 23.0 °F 12% 29.92 in - East 12.7 mph 16.1 mph N/A   Clear
12:55 PM 80.6 °F 23.0 °F 12% 29.91 in - ENE 10.4 mph 16.1 mph N/A   Clear
1:15 PM 80.6 °F 24.8 °F 13% 29.91 in - ESE 9.2 mph - N/A   Clear
1:35 PM 82.4 °F 24.8 °F 12% 29.90 in - East 10.4 mph - N/A   Clear
1:55 PM 82.4 °F 28.4 °F 14% 29.89 in - East 11.5 mph 17.3 mph N/A   Clear
2:15 PM 80.6 °F 24.8 °F 13% 29.89 in - ESE 5.8 mph - N/A   Clear
2:35 PM 82.4 °F 26.6 °F 13% 29.88 in - East 6.9 mph - N/A   Clear
2:55 PM 82.4 °F 26.6 °F 13% 29.88 in - SE 5.8 mph - N/A   Clear
3:15 PM 82.4 °F 23.0 °F 11% 29.87 in - SE 6.9 mph - N/A   Clear
3:35 PM 82.4 °F 23.0 °F 11% 29.87 in - ESE 6.9 mph - N/A   Clear
3:55 PM 82.4 °F 24.8 °F 12% 29.87 in - ESE 6.9 mph - N/A   Clear
4:15 PM 82.4 °F 26.6 °F 13% 29.86 in - ESE 5.8 mph - N/A   Clear
4:35 PM 82.4 °F 28.4 °F 14% 29.86 in - SE 5.8 mph - N/A   Clear
4:55 PM 82.4 °F 26.6 °F 13% 29.86 in - SSE 3.5 mph - N/A   Clear
5:15 PM 80.6 °F 28.4 °F 15% 29.86 in - Calm Calm - N/A   Clear
5:35 PM 78.8 °F 28.4 °F 16% 29.87 in - Calm Calm - N/A   Clear
5:55 PM 75.2 °F 26.6 °F 17% 29.87 in - Calm Calm - N/A   Clear
6:15 PM 75.2 °F 24.8 °F 15% 29.88 in - Calm Calm - N/A   Clear
6:35 PM 73.4 °F 26.6 °F 18% 29.88 in - Calm Calm - N/A   Clear
6:55 PM 71.6 °F 24.8 °F 17% 29.89 in - Calm Calm - N/A   Clear
7:15 PM 69.8 °F 23.0 °F 17% 29.89 in - Calm Calm - N/A   Clear
7:35 PM 68.0 °F 23.0 °F 18% 29.90 in - NW 8.1 mph - N/A   Clear
7:55 PM 69.8 °F 21.2 °F 16% 29.90 in - WNW 5.8 mph - N/A   Clear
8:35 PM 64.4 °F 19.4 °F 18% 29.91 in - NNW 5.8 mph - N/A   Clear
8:55 PM 64.4 °F 19.4 °F 18% 29.92 in - NW 6.9 mph - N/A   Clear
9:35 PM 64.4 °F 15.8 °F 15% 29.92 in - NNW 9.2 mph - N/A   Clear
9:55 PM 60.8 °F 17.6 °F 19% 29.92 in - NNW 6.9 mph - N/A   Clear
10:15 PM 60.8 °F 17.6 °F 19% 29.92 in - NNW 9.2 mph - N/A   Clear
10:55 PM 60.8 °F 19.4 °F 20% 29.92 in - NE 5.8 mph - N/A   Clear
11:15 PM 66.2 °F 15.8 °F 14% 29.93 in - NE 4.6 mph - N/A   Clear
11:35 PM 66.2 °F 14.0 °F 13% 29.93 in - NE 9.2 mph - N/A   Clear
11:55 PM 64.4 °F 14.0 °F 14% 29.93 in - NE 4.6 mph - N/A   Clear